User: anonymous
Location: Mentone
(34.5413°N, 85.5351°W)
Time: 07:58:11
(UTC-05:00)
Language:

A-11 Canister half - Orbit

View from above orbital plane
View from above orbital plane
View from above satellite
View from above satellite

Ground track
Ground track

The orbit data is extracted from the following two-line orbital elements,

1 00053U 60009E   14107.12394516 -.00000084  00000-0  00000+0 0  5029
2 00053 047.2776 007.3076 0098229 264.0760 243.1434 12.17138250394110
Epoch (UTC): 17 April 2014 02:58:28
Eccentricity: 0.0098229
inclination: 47.2776°
perigee height: 1526 km
apogee height: 1683 km
right ascension of ascending node: 7.3076°
argument of perigee: 264.0760°
revolutions per day: 12.17138250
mean anomaly at epoch: 243.1434°
orbit number at epoch: 39411

The dashed part of the orbit path shows where the satellite is in the earth's shadow,  

DLR